Time,TemperatureF,DewpointF,PressureIn,WindDirection,WindDirectionDegrees,WindSpeedMPH,WindSpeedGustMPH,Humidity,HourlyPrecipIn,Conditions,Clouds,dailyrainin,SolarRadiationWatts/m^2,SoftwareType,DateUTC
2013-12-21 00:00:00,75.5,68.9,30.11,ESE,112,3.0,6.0,80,0.00,,SCT025,0.00,0.00,VWS V15.00,2013-12-21 05:00:00,
2013-12-21 00:05:00,75.5,68.9,30.11,ESE,112,2.0,5.0,80,0.00,,SCT025,0.00,0.00,VWS V15.00,2013-12-21 05:05:00,
2013-12-21 00:10:00,75.5,68.9,30.11,ESE,112,2.0,9.0,80,0.00,,SCT025,0.00,0.00,VWS V15.00,2013-12-21 05:10:00,
2013-12-21 00:15:00,75.5,69.3,30.11,East,90,2.0,5.0,81,0.00,,SCT025,0.00,0.00,VWS V15.00,2013-12-21 05:15:00,
2013-12-21 00:20:00,75.5,69.3,30.11,ESE,112,3.0,10.0,81,0.00,,SCT025,0.00,0.00,VWS V15.00,2013-12-21 05:20:00,
2013-12-21 00:25:00,75.5,69.3,30.10,ESE,112,2.0,5.0,81,0.00,,SCT025,0.00,0.00,VWS V15.00,2013-12-21 05:25:00,
2013-12-21 00:30:00,75.5,69.3,30.10,ESE,112,2.0,4.0,81,0.00,,SCT025,0.00,0.00,VWS V15.00,2013-12-21 05:30:00,
2013-12-21 00:35:00,75.5,69.3,30.10,ESE,112,2.0,7.0,81,0.00,,SCT025,0.00,0.00,VWS V15.00,2013-12-21 05:35:00,
2013-12-21 00:40:00,75.5,69.3,30.10,ESE,112,2.0,6.0,81,0.00,,SCT025,0.00,0.00,VWS V15.00,2013-12-21 05:40:00,
2013-12-21 00:45:00,75.5,69.3,30.10,ESE,112,2.0,5.0,81,0.00,,SCT025,0.00,0.00,VWS V15.00,2013-12-21 05:45:00,
2013-12-21 00:50:00,75.5,69.3,30.10,ESE,112,2.0,6.0,81,0.00,,SCT025,0.00,0.00,VWS V15.00,2013-12-21 05:50:00,
2013-12-21 00:55:00,75.4,69.5,30.10,ESE,112,4.0,9.0,82,0.00,,SCT025,0.00,0.00,VWS V15.00,2013-12-21 05:55:00,
2013-12-21 01:00:00,75.4,69.5,30.09,East,90,2.0,6.0,82,0.00,,SCT025,0.00,0.00,VWS V15.00,2013-12-21 06:00:00,
2013-12-21 01:05:00,75.4,69.5,30.09,ESE,112,2.0,7.0,82,0.00,,SCT025,0.00,0.00,VWS V15.00,2013-12-21 06:05:00,
2013-12-21 01:10:00,75.4,69.5,30.09,ESE,112,3.0,9.0,82,0.00,,SCT025,0.00,0.00,VWS V15.00,2013-12-21 06:10:00,
2013-12-21 01:15:00,75.4,69.5,30.09,ESE,112,3.0,5.0,82,0.00,,SCT025,0.00,0.00,VWS V15.00,2013-12-21 06:15:00,
2013-12-21 01:20:00,75.3,69.4,30.09,ESE,112,3.0,6.0,82,0.00,,SCT025,0.00,0.00,VWS V15.00,2013-12-21 06:20:00,
2013-12-21 01:25:00,75.3,69.4,30.09,ESE,112,3.0,7.0,82,0.00,,SCT025,0.00,0.00,VWS V15.00,2013-12-21 06:25:00,
2013-12-21 01:30:00,75.3,69.4,30.08,ESE,112,4.0,10.0,82,0.00,,SCT025,0.00,0.00,VWS V15.00,2013-12-21 06:30:00,
2013-12-21 01:35:00,75.3,69.8,30.08,ESE,112,3.0,9.0,83,0.00,,SCT025,0.00,0.00,VWS V15.00,2013-12-21 06:35:00,
2013-12-21 01:40:00,75.2,69.7,30.08,ESE,112,2.0,7.0,83,0.00,,SCT025,0.00,0.00,VWS V15.00,2013-12-21 06:40:00,
2013-12-21 01:45:00,75.2,69.7,30.08,SE,135,2.0,5.0,83,0.00,,SCT025,0.00,0.00,VWS V15.00,2013-12-21 06:45:00,
2013-12-21 01:50:00,75.1,69.6,30.08,ESE,112,3.0,7.0,83,0.00,,SCT025,0.00,0.00,VWS V15.00,2013-12-21 06:50:00,
2013-12-21 01:55:00,75.1,69.6,30.08,ESE,112,3.0,7.0,83,0.00,,SCT025,0.00,0.00,VWS V15.00,2013-12-21 06:55:00,
2013-12-21 02:00:00,75.1,69.6,30.08,ESE,112,2.0,7.0,83,0.00,,SCT025,0.00,0.00,VWS V15.00,2013-12-21 07:00:00,
2013-12-21 02:05:00,75.1,69.6,30.08,ESE,112,3.0,6.0,83,0.00,,SCT025,0.00,0.00,VWS V15.00,2013-12-21 07:05:00,
2013-12-21 02:10:00,75.1,69.6,30.07,ESE,112,2.0,9.0,83,0.00,,SCT025,0.00,0.00,VWS V15.00,2013-12-21 07:10:00,
2013-12-21 02:15:00,75.1,69.6,30.07,East,90,4.0,8.0,83,0.00,,SCT025,0.00,0.00,VWS V15.00,2013-12-21 07:15:00,
2013-12-21 02:20:00,75.1,69.6,30.07,ESE,112,4.0,12.0,83,0.00,,SCT025,0.00,0.00,VWS V15.00,2013-12-21 07:20:00,
2013-12-21 02:25:00,75.1,69.6,30.07,East,90,4.0,10.0,83,0.00,,SCT025,0.00,0.00,VWS V15.00,2013-12-21 07:25:00,
2013-12-21 02:30:00,75.1,69.6,30.07,ESE,112,3.0,9.0,83,0.00,,SCT025,0.00,0.00,VWS V15.00,2013-12-21 07:30:00,
2013-12-21 02:35:00,75.1,69.6,30.07,ESE,112,2.0,7.0,83,0.00,,SCT025,0.00,0.00,VWS V15.00,2013-12-21 07:35:00,
2013-12-21 02:40:00,75.1,69.6,30.07,ESE,112,2.0,7.0,83,0.00,,SCT025,0.00,0.00,VWS V15.00,2013-12-21 07:40:00,
2013-12-21 02:45:00,75.0,69.5,30.07,SE,135,2.0,6.0,83,0.00,,SCT025,0.00,0.00,VWS V15.00,2013-12-21 07:45:00,
2013-12-21 02:50:00,75.0,69.5,30.07,ESE,112,3.0,7.0,83,0.00,,SCT025,0.00,0.00,VWS V15.00,2013-12-21 07:50:00,
2013-12-21 02:55:00,75.0,69.5,30.06,ESE,112,3.0,10.0,83,0.00,,SCT025,0.00,0.00,VWS V15.00,2013-12-21 07:55:00,
2013-12-21 03:00:00,75.0,69.5,30.06,ESE,112,3.0,7.0,83,0.00,,SCT025,0.00,0.00,VWS V15.00,2013-12-21 08:00:00,
2013-12-21 03:05:00,75.0,69.5,30.06,ESE,112,3.0,6.0,83,0.00,,SCT025,0.00,0.00,VWS V15.00,2013-12-21 08:05:00,
2013-12-21 03:10:00,75.0,69.8,30.06,ESE,112,4.0,10.0,84,0.00,,SCT025,0.00,0.00,VWS V15.00,2013-12-21 08:10:00,
2013-12-21 03:15:00,74.9,69.7,30.06,ESE,112,2.0,5.0,84,0.00,,SCT025,0.00,0.00,VWS V15.00,2013-12-21 08:15:00,
2013-12-21 03:20:00,74.9,69.7,30.06,ESE,112,1.0,4.0,84,0.00,,SCT025,0.00,0.00,VWS V15.00,2013-12-21 08:20:00,
2013-12-21 03:25:00,74.8,69.7,30.06,ESE,112,2.0,6.0,84,0.00,,SCT025,0.00,0.00,VWS V15.00,2013-12-21 08:25:00,
2013-12-21 03:30:00,74.8,69.7,30.06,ESE,112,3.0,6.0,84,0.00,,SCT025,0.00,0.00,VWS V15.00,2013-12-21 08:30:00,
2013-12-21 03:35:00,74.8,69.7,30.06,SE,135,1.0,6.0,84,0.00,,SCT025,0.00,0.00,VWS V15.00,2013-12-21 08:35:00,
2013-12-21 03:40:00,74.8,69.7,30.06,East,90,3.0,7.0,84,0.00,,SCT025,0.00,0.00,VWS V15.00,2013-12-21 08:40:00,
2013-12-21 03:45:00,74.8,69.7,30.06,ESE,112,4.0,11.0,84,0.00,,SCT025,0.00,0.00,VWS V15.00,2013-12-21 08:45:00,
2013-12-21 03:50:00,74.8,69.7,30.06,ESE,112,4.0,11.0,84,0.00,,SCT025,0.00,0.00,VWS V15.00,2013-12-21 08:50:00,
2013-12-21 03:55:00,74.8,69.7,30.06,ESE,112,2.0,7.0,84,0.00,,SCT025,0.00,0.00,VWS V15.00,2013-12-21 08:55:00,
2013-12-21 04:00:00,74.8,69.7,30.06,ESE,112,1.0,4.0,84,0.00,,SCT025,0.00,0.00,VWS V15.00,2013-12-21 09:00:00,
2013-12-21 04:05:00,74.8,69.7,30.06,East,90,2.0,5.0,84,0.00,,SCT025,0.00,0.00,VWS V15.00,2013-12-21 09:05:00,
2013-12-21 04:10:00,74.8,69.7,30.06,ESE,112,2.0,6.0,84,0.00,,SCT025,0.00,0.00,VWS V15.00,2013-12-21 09:10:00,
2013-12-21 04:15:00,74.9,69.7,30.06,ESE,112,4.0,12.0,84,0.00,,SCT025,0.00,0.00,VWS V15.00,2013-12-21 09:15:00,
2013-12-21 04:20:00,74.9,69.7,30.05,ESE,112,3.0,7.0,84,0.00,,SCT025,0.00,0.00,VWS V15.00,2013-12-21 09:20:00,
2013-12-21 04:25:00,74.9,69.7,30.05,East,90,3.0,12.0,84,0.00,,SCT025,0.00,0.00,VWS V15.00,2013-12-21 09:25:00,
2013-12-21 04:30:00,74.9,69.7,30.05,ESE,112,3.0,14.0,84,0.00,,SCT025,0.00,0.00,VWS V15.00,2013-12-21 09:30:00,
2013-12-21 04:35:00,75.0,69.8,30.05,ESE,112,4.0,11.0,84,0.00,,SCT025,0.00,0.00,VWS V15.00,2013-12-21 09:35:00,
2013-12-21 04:40:00,75.0,69.8,30.05,ESE,112,4.0,9.0,84,0.00,,SCT025,0.00,0.00,VWS V15.00,2013-12-21 09:40:00,
2013-12-21 04:45:00,75.1,69.9,30.05,ESE,112,4.0,11.0,84,0.00,,SCT025,0.00,0.00,VWS V15.00,2013-12-21 09:45:00,
2013-12-21 04:50:00,75.1,69.9,30.05,ESE,112,4.0,10.0,84,0.00,,SCT025,0.00,0.00,VWS V15.00,2013-12-21 09:50:00,
2013-12-21 04:55:00,75.1,69.9,30.05,ESE,112,4.0,10.0,84,0.00,,SCT025,0.00,0.00,VWS V15.00,2013-12-21 09:55:00,
2013-12-21 05:00:00,75.0,69.8,30.05,ESE,112,3.0,10.0,84,0.00,,SCT025,0.00,0.00,VWS V15.00,2013-12-21 10:00:00,
2013-12-21 05:05:00,75.0,69.8,30.05,ESE,112,3.0,11.0,84,0.00,,SCT025,0.00,0.00,VWS V15.00,2013-12-21 10:05:00,
2013-12-21 05:10:00,75.0,69.8,30.05,ESE,112,2.0,7.0,84,0.00,,SCT025,0.00,0.00,VWS V15.00,2013-12-21 10:10:00,
2013-12-21 05:15:00,75.0,69.8,30.05,ESE,112,3.0,9.0,84,0.00,,SCT025,0.00,0.00,VWS V15.00,2013-12-21 10:15:00,
2013-12-21 05:20:00,75.0,69.8,30.05,ESE,112,3.0,11.0,84,0.00,,SCT025,0.00,0.00,VWS V15.00,2013-12-21 10:20:00,
2013-12-21 05:25:00,75.0,70.2,30.06,ESE,112,3.0,10.0,85,0.00,,SCT025,0.00,0.00,VWS V15.00,2013-12-21 10:25:00,
2013-12-21 05:30:00,75.0,70.2,30.06,ESE,112,2.0,6.0,85,0.00,,SCT025,0.00,0.00,VWS V15.00,2013-12-21 10:30:00,
2013-12-21 05:35:00,74.9,70.1,30.06,ESE,112,1.0,4.0,85,0.00,,SCT025,0.00,0.00,VWS V15.00,2013-12-21 10:35:00,
2013-12-21 05:40:00,74.9,70.1,30.05,ESE,112,3.0,6.0,85,0.00,,SCT025,0.00,0.00,VWS V15.00,2013-12-21 10:40:00,
2013-12-21 05:45:00,74.8,70.0,30.05,ESE,112,2.0,6.0,85,0.00,,SCT025,0.00,0.00,VWS V15.00,2013-12-21 10:45:00,
2013-12-21 05:50:00,74.8,70.0,30.06,ESE,112,2.0,5.0,85,0.00,,SCT025,0.00,0.00,VWS V15.00,2013-12-21 10:50:00,
2013-12-21 05:55:00,74.8,70.0,30.05,SE,135,2.0,6.0,85,0.00,,SCT025,0.00,0.00,VWS V15.00,2013-12-21 10:55:00,
2013-12-21 06:00:00,74.8,70.0,30.06,ESE,112,1.0,4.0,85,0.00,,SCT025,0.00,0.00,VWS V15.00,2013-12-21 11:00:00,
2013-12-21 06:05:00,74.8,70.0,30.06,ESE,112,2.0,8.0,85,0.00,,SCT025,0.00,0.00,VWS V15.00,2013-12-21 11:05:00,
2013-12-21 06:10:00,74.8,70.0,30.06,ESE,112,3.0,7.0,85,0.00,,SCT025,0.00,0.00,VWS V15.00,2013-12-21 11:10:00,
2013-12-21 06:15:00,74.8,70.0,30.06,ESE,112,2.0,7.0,85,0.00,,SCT025,0.00,0.00,VWS V15.00,2013-12-21 11:15:00,
2013-12-21 06:20:00,74.8,70.0,30.06,ESE,112,1.0,6.0,85,0.00,,SCT025,0.00,0.00,VWS V15.00,2013-12-21 11:20:00,
2013-12-21 06:25:00,74.7,70.2,30.06,ESE,112,1.0,4.0,86,0.00,,SCT025,0.00,0.00,VWS V15.00,2013-12-21 11:25:00,
2013-12-21 06:30:00,74.7,70.2,30.06,ESE,112,2.0,11.0,86,0.00,,SCT025,0.00,0.00,VWS V15.00,2013-12-21 11:30:00,
2013-12-21 06:35:00,74.7,70.2,30.07,ESE,112,1.0,4.0,86,0.00,,SCT025,0.00,0.00,VWS V15.00,2013-12-21 11:35:00,
2013-12-21 06:40:00,74.7,70.2,30.07,SE,135,1.0,4.0,86,0.00,,SCT025,0.00,0.00,VWS V15.00,2013-12-21 11:40:00,
2013-12-21 06:45:00,74.7,70.2,30.07,SE,135,1.0,4.0,86,0.00,,SCT025,0.00,0.00,VWS V15.00,2013-12-21 11:45:00,
2013-12-21 06:50:00,74.8,70.3,30.07,ESE,112,2.0,7.0,86,0.00,,SCT025,0.00,0.00,VWS V15.00,2013-12-21 11:50:00,
2013-12-21 06:55:00,74.9,70.4,30.07,ESE,112,2.0,10.0,86,0.00,,SCT025,0.00,0.00,VWS V15.00,2013-12-21 11:55:00,
2013-12-21 07:00:00,75.0,70.9,30.07,ESE,112,2.0,5.0,87,0.00,,SCT025,0.00,0.00,VWS V15.00,2013-12-21 12:00:00,
2013-12-21 07:05:00,75.1,70.6,30.08,ESE,112,1.0,4.0,86,0.00,,SCT025,0.00,1.00,VWS V15.00,2013-12-21 12:05:00,
2013-12-21 07:10:00,75.1,70.6,30.08,East,90,1.0,5.0,86,0.00,,SCT025,0.00,7.00,VWS V15.00,2013-12-21 12:10:00,
2013-12-21 07:15:00,75.1,71.0,30.08,ESE,112,1.0,3.0,87,0.00,,SCT025,0.00,9.00,VWS V15.00,2013-12-21 12:15:00,
2013-12-21 07:20:00,75.1,71.0,30.08,ESE,112,1.0,4.0,87,0.00,,SCT025,0.00,14.00,VWS V15.00,2013-12-21 12:20:00,
2013-12-21 07:25:00,75.2,71.1,30.08,ESE,112,3.0,7.0,87,0.00,,SCT025,0.00,19.00,VWS V15.00,2013-12-21 12:25:00,
2013-12-21 07:30:00,75.2,71.1,30.08,ESE,112,3.0,6.0,87,0.00,,SCT025,0.00,29.00,VWS V15.00,2013-12-21 12:30:00,
2013-12-21 07:35:00,75.3,71.2,30.08,SE,135,2.0,7.0,87,0.00,,SCT025,0.00,30.00,VWS V15.00,2013-12-21 12:35:00,
2013-12-21 07:40:00,75.4,71.3,30.08,ESE,112,2.0,8.0,87,0.00,,SCT025,0.00,39.00,VWS V15.00,2013-12-21 12:40:00,
2013-12-21 07:45:00,75.5,71.4,30.08,ESE,112,5.0,10.0,87,0.00,,SCT025,0.00,31.00,VWS V15.00,2013-12-21 12:45:00,
2013-12-21 07:50:00,75.6,71.5,30.08,ESE,112,3.0,8.0,87,0.00,,SCT025,0.00,31.00,VWS V15.00,2013-12-21 12:50:00,
2013-12-21 07:55:00,75.7,71.6,30.08,ESE,112,4.0,11.0,87,0.00,,SCT025,0.00,45.00,VWS V15.00,2013-12-21 12:55:00,
2013-12-21 08:00:00,75.7,71.6,30.08,ESE,112,4.0,10.0,87,0.00,,SCT025,0.00,54.00,VWS V15.00,2013-12-21 13:00:00,
2013-12-21 08:05:00,75.8,71.7,30.09,ESE,112,3.0,10.0,87,0.00,,SCT025,0.00,69.00,VWS V15.00,2013-12-21 13:05:00,
2013-12-21 08:10:00,75.9,71.8,30.09,ESE,112,3.0,9.0,87,0.00,,SCT025,0.00,68.00,VWS V15.00,2013-12-21 13:10:00,
2013-12-21 08:15:00,76.0,71.5,30.09,ESE,112,4.0,10.0,86,0.00,,SCT025,0.00,80.00,VWS V15.00,2013-12-21 13:15:00,
2013-12-21 08:20:00,76.3,71.8,30.09,ESE,112,4.0,9.0,86,0.00,,SCT025,0.00,123.00,VWS V15.00,2013-12-21 13:20:00,
2013-12-21 08:25:00,76.6,72.1,30.08,ESE,112,3.0,10.0,86,0.00,,SCT025,0.00,159.00,VWS V15.00,2013-12-21 13:25:00,
2013-12-21 08:30:00,76.9,72.1,30.09,ESE,112,5.0,13.0,85,0.00,,SCT025,0.00,107.00,VWS V15.00,2013-12-21 13:30:00,
2013-12-21 08:35:00,77.2,72.0,30.09,ESE,112,7.0,17.0,84,0.00,,SCT025,0.00,161.00,VWS V15.00,2013-12-21 13:35:00,
2013-12-21 08:40:00,77.4,72.2,30.09,ESE,112,5.0,10.0,84,0.00,,SCT025,0.00,111.00,VWS V15.00,2013-12-21 13:40:00,
2013-12-21 08:45:00,77.5,72.3,30.09,SE,135,4.0,9.0,84,0.00,,SCT025,0.00,134.00,VWS V15.00,2013-12-21 13:45:00,
2013-12-21 08:50:00,77.7,72.5,30.09,SE,135,5.0,12.0,84,0.00,,SCT025,0.00,218.00,VWS V15.00,2013-12-21 13:50:00,
2013-12-21 08:55:00,78.0,72.4,30.09,SE,135,6.0,12.0,83,0.00,,SCT025,0.00,280.00,VWS V15.00,2013-12-21 13:55:00,
2013-12-21 09:00:00,78.2,72.3,30.09,ESE,112,7.0,18.0,82,0.00,,SCT025,0.00,217.00,VWS V15.00,2013-12-21 14:00:00,
2013-12-21 09:05:00,78.3,72.4,30.09,SE,135,8.0,17.0,82,0.00,,SCT025,0.00,270.00,VWS V15.00,2013-12-21 14:05:00,
2013-12-21 09:10:00,78.5,72.2,30.10,SE,135,6.0,12.0,81,0.00,,SCT025,0.00,244.00,VWS V15.00,2013-12-21 14:10:00,
2013-12-21 09:15:00,78.7,72.4,30.10,ESE,112,7.0,16.0,81,0.00,,SCT025,0.00,258.00,VWS V15.00,2013-12-21 14:15:00,
2013-12-21 09:20:00,78.8,72.1,30.10,SE,135,5.0,12.0,80,0.00,,SCT025,0.00,176.00,VWS V15.00,2013-12-21 14:20:00,
2013-12-21 09:25:00,78.9,72.2,30.10,ESE,112,6.0,13.0,80,0.00,,SCT025,0.00,302.00,VWS V15.00,2013-12-21 14:25:00,
2013-12-21 09:30:00,79.0,71.9,30.10,ESE,112,7.0,18.0,79,0.00,,SCT025,0.00,363.00,VWS V15.00,2013-12-21 14:30:00,
2013-12-21 09:35:00,79.1,71.7,30.10,ESE,112,7.0,15.0,78,0.00,,SCT025,0.00,263.00,VWS V15.00,2013-12-21 14:35:00,
2013-12-21 09:40:00,79.1,71.7,30.11,ESE,112,8.0,18.0,78,0.00,,SCT025,0.00,160.00,VWS V15.00,2013-12-21 14:40:00,
2013-12-21 09:45:00,79.2,71.8,30.11,SE,135,8.0,15.0,78,0.00,,SCT025,0.00,366.00,VWS V15.00,2013-12-21 14:45:00,
2013-12-21 09:50:00,79.5,72.0,30.11,SE,135,7.0,14.0,78,0.00,,SCT025,0.00,499.00,VWS V15.00,2013-12-21 14:50:00,
2013-12-21 09:55:00,79.7,71.5,30.11,ESE,112,8.0,18.0,76,0.00,,SCT025,0.00,475.00,VWS V15.00,2013-12-21 14:55:00,
2013-12-21 10:00:00,79.6,71.0,30.11,SE,135,12.0,21.0,75,0.00,,SCT025,0.00,184.00,VWS V15.00,2013-12-21 15:00:00,
2013-12-21 10:05:00,79.8,71.2,30.11,ESE,112,8.0,17.0,75,0.00,,SCT025,0.00,460.00,VWS V15.00,2013-12-21 15:05:00,
2013-12-21 10:10:00,80.1,71.5,30.11,SE,135,9.0,20.0,75,0.00,,SCT025,0.00,483.00,VWS V15.00,2013-12-21 15:10:00,
2013-12-21 10:15:00,80.2,71.6,30.11,SE,135,9.0,20.0,75,0.00,,SCT025,0.00,507.00,VWS V15.00,2013-12-21 15:15:00,
2013-12-21 10:20:00,80.1,71.5,30.11,SE,135,11.0,19.0,75,0.00,,SCT025,0.00,455.00,VWS V15.00,2013-12-21 15:20:00,
2013-12-21 10:25:00,80.0,71.0,30.11,ESE,112,11.0,19.0,74,0.00,,SCT025,0.00,494.00,VWS V15.00,2013-12-21 15:25:00,
2013-12-21 10:30:00,80.1,70.7,30.11,ESE,112,10.0,22.0,73,0.00,,SCT025,0.00,493.00,VWS V15.00,2013-12-21 15:30:00,
2013-12-21 10:35:00,80.3,71.3,30.11,SE,135,7.0,13.0,74,0.00,,SCT025,0.00,499.00,VWS V15.00,2013-12-21 15:35:00,
2013-12-21 10:40:00,80.4,71.0,30.10,ESE,112,8.0,17.0,73,0.00,,SCT025,0.00,469.00,VWS V15.00,2013-12-21 15:40:00,
2013-12-21 10:45:00,80.5,71.5,30.10,ESE,112,8.0,19.0,74,0.00,,SCT025,0.00,502.00,VWS V15.00,2013-12-21 15:45:00,
2013-12-21 10:50:00,80.8,71.3,30.10,SE,135,8.0,15.0,73,0.00,,SCT025,0.00,533.00,VWS V15.00,2013-12-21 15:50:00,
2013-12-21 10:55:00,81.0,71.5,30.10,ESE,112,7.0,16.0,73,0.00,,SCT025,0.00,521.00,VWS V15.00,2013-12-21 15:55:00,
2013-12-21 11:00:00,81.0,71.1,30.10,ESE,112,9.0,19.0,72,0.00,,SCT025,0.00,569.00,VWS V15.00,2013-12-21 16:00:00,
2013-12-21 11:05:00,80.8,70.9,30.10,SE,135,9.0,17.0,72,0.00,,SCT025,0.00,429.00,VWS V15.00,2013-12-21 16:05:00,
2013-12-21 11:10:00,80.7,71.2,30.10,ESE,112,8.0,17.0,73,0.00,,SCT025,0.00,545.00,VWS V15.00,2013-12-21 16:10:00,
2013-12-21 11:15:00,80.7,71.2,30.10,SE,135,10.0,21.0,73,0.00,,SCT025,0.00,148.00,VWS V15.00,2013-12-21 16:15:00,
2013-12-21 11:20:00,80.6,71.2,30.10,SE,135,8.0,20.0,73,0.00,,SCT025,0.00,573.00,VWS V15.00,2013-12-21 16:20:00,
2013-12-21 11:25:00,80.9,71.4,30.10,SE,135,8.0,20.0,73,0.00,,SCT025,0.00,630.00,VWS V15.00,2013-12-21 16:25:00,
2013-12-21 11:30:00,81.2,71.7,30.10,SE,135,9.0,17.0,73,0.00,,SCT025,0.00,653.00,VWS V15.00,2013-12-21 16:30:00,
2013-12-21 11:35:00,81.1,71.6,30.09,ESE,112,7.0,15.0,73,0.00,,SCT025,0.00,612.00,VWS V15.00,2013-12-21 16:35:00,
2013-12-21 11:40:00,80.9,71.4,30.09,ESE,112,7.0,18.0,73,0.00,,SCT025,0.00,674.00,VWS V15.00,2013-12-21 16:40:00,
2013-12-21 11:45:00,80.9,71.4,30.09,ESE,112,9.0,18.0,73,0.00,,SCT025,0.00,661.00,VWS V15.00,2013-12-21 16:45:00,
2013-12-21 11:50:00,80.8,71.3,30.09,ESE,112,8.0,18.0,73,0.00,,SCT025,0.00,575.00,VWS V15.00,2013-12-21 16:50:00,
2013-12-21 11:55:00,81.0,71.5,30.09,ESE,112,7.0,15.0,73,0.00,,SCT025,0.00,650.00,VWS V15.00,2013-12-21 16:55:00,
2013-12-21 12:00:00,81.3,71.8,30.09,ESE,112,7.0,15.0,73,0.00,,SCT025,0.00,500.00,VWS V15.00,2013-12-21 17:00:00,
2013-12-21 12:05:00,81.0,71.5,30.09,SE,135,8.0,17.0,73,0.00,,SCT025,0.00,266.00,VWS V15.00,2013-12-21 17:05:00,
2013-12-21 12:10:00,80.5,71.1,30.08,ESE,112,7.0,16.0,73,0.00,,SCT025,0.00,208.00,VWS V15.00,2013-12-21 17:10:00,
2013-12-21 12:15:00,80.6,71.2,30.08,ESE,112,8.0,15.0,73,0.00,,SCT025,0.00,652.00,VWS V15.00,2013-12-21 17:15:00,
2013-12-21 12:20:00,80.8,71.3,30.08,ESE,112,9.0,16.0,73,0.00,,SCT025,0.00,617.00,VWS V15.00,2013-12-21 17:20:00,
2013-12-21 12:25:00,80.9,71.0,30.08,SE,135,9.0,17.0,72,0.00,,SCT025,0.00,405.00,VWS V15.00,2013-12-21 17:25:00,
2013-12-21 12:30:00,81.1,71.6,30.07,ESE,112,8.0,16.0,73,0.00,,SCT025,0.00,596.00,VWS V15.00,2013-12-21 17:30:00,
2013-12-21 12:35:00,81.5,71.2,30.07,SE,135,9.0,18.0,71,0.00,,SCT025,0.00,596.00,VWS V15.00,2013-12-21 17:35:00,
2013-12-21 12:40:00,81.6,71.3,30.07,SE,135,8.0,20.0,71,0.00,,SCT025,0.00,593.00,VWS V15.00,2013-12-21 17:40:00,
2013-12-21 12:45:00,81.5,71.2,30.07,ESE,112,7.0,15.0,71,0.00,,SCT025,0.00,476.00,VWS V15.00,2013-12-21 17:45:00,
2013-12-21 12:50:00,81.4,71.1,30.07,SE,135,8.0,17.0,71,0.00,,SCT025,0.00,650.00,VWS V15.00,2013-12-21 17:50:00,
2013-12-21 12:55:00,81.6,70.9,30.06,East,90,7.0,16.0,70,0.00,,SCT025,0.00,624.00,VWS V15.00,2013-12-21 17:55:00,
2013-12-21 13:00:00,82.0,71.3,30.06,SE,135,7.0,14.0,70,0.00,,SCT025,0.00,602.00,VWS V15.00,2013-12-21 18:00:00,
2013-12-21 13:05:00,82.0,71.3,30.06,SE,135,8.0,16.0,70,0.00,,SCT025,0.00,637.00,VWS V15.00,2013-12-21 18:05:00,
2013-12-21 13:10:00,82.3,71.1,30.06,SE,135,8.0,14.0,69,0.00,,SCT025,0.00,655.00,VWS V15.00,2013-12-21 18:10:00,
2013-12-21 13:15:00,81.6,70.9,30.06,SE,135,9.0,18.0,70,0.00,,SCT025,0.00,362.00,VWS V15.00,2013-12-21 18:15:00,
2013-12-21 13:20:00,81.8,71.5,30.05,SE,135,8.0,16.0,71,0.00,,SCT025,0.00,679.00,VWS V15.00,2013-12-21 18:20:00,
2013-12-21 13:25:00,82.2,71.4,30.05,SE,135,7.0,15.0,70,0.00,,SCT025,0.00,630.00,VWS V15.00,2013-12-21 18:25:00,
2013-12-21 13:30:00,82.4,71.6,30.05,SE,135,8.0,15.0,70,0.00,,SCT025,0.00,616.00,VWS V15.00,2013-12-21 18:30:00,
2013-12-21 13:35:00,82.2,71.4,30.05,SE,135,8.0,16.0,70,0.00,,SCT025,0.00,603.00,VWS V15.00,2013-12-21 18:35:00,
2013-12-21 13:40:00,81.8,71.1,30.04,SE,135,7.0,16.0,70,0.00,,SCT025,0.00,611.00,VWS V15.00,2013-12-21 18:40:00,
2013-12-21 13:45:00,81.3,71.0,30.04,SE,135,8.0,16.0,71,0.00,,SCT025,0.00,432.00,VWS V15.00,2013-12-21 18:45:00,
2013-12-21 13:50:00,80.7,71.2,30.03,ESE,112,6.0,13.0,73,0.00,,SCT030,0.00,270.00,VWS V15.00,2013-12-21 18:50:00,
2013-12-21 13:55:00,81.9,71.2,30.04,SE,135,8.0,17.0,70,0.00,,SCT025,0.00,641.00,VWS V15.00,2013-12-21 18:55:00,
2013-12-21 14:00:00,82.2,71.9,30.03,ESE,112,6.0,15.0,71,0.00,,SCT025,0.00,626.00,VWS V15.00,2013-12-21 19:00:00,
2013-12-21 14:05:00,81.4,71.1,30.03,East,90,7.0,13.0,71,0.00,,SCT025,0.00,359.00,VWS V15.00,2013-12-21 19:05:00,
2013-12-21 14:10:00,81.4,71.5,30.03,SE,135,7.0,14.0,72,0.00,,SCT025,0.00,580.00,VWS V15.00,2013-12-21 19:10:00,
2013-12-21 14:15:00,81.7,72.2,30.03,SE,135,6.0,12.0,73,0.00,,SCT025,0.00,576.00,VWS V15.00,2013-12-21 19:15:00,
2013-12-21 14:20:00,81.6,71.7,30.03,SE,135,5.0,12.0,72,0.00,,SCT025,0.00,424.00,VWS V15.00,2013-12-21 19:20:00,
2013-12-21 14:25:00,81.1,71.2,30.03,SE,135,7.0,18.0,72,0.00,,SCT025,0.00,383.00,VWS V15.00,2013-12-21 19:25:00,
2013-12-21 14:30:00,81.5,71.6,30.03,SE,135,6.0,15.0,72,0.00,,SCT025,0.00,514.00,VWS V15.00,2013-12-21 19:30:00,
2013-12-21 14:35:00,81.9,71.6,30.03,SE,135,4.0,13.0,71,0.00,,SCT025,0.00,113.00,VWS V15.00,2013-12-21 19:35:00,
2013-12-21 14:40:00,81.1,71.2,30.03,SE,135,7.0,17.0,72,0.00,,SCT025,0.00,465.00,VWS V15.00,2013-12-21 19:40:00,
2013-12-21 14:45:00,80.6,71.2,30.03,ESE,112,6.0,13.0,73,0.00,,SCT025,0.00,466.00,VWS V15.00,2013-12-21 19:45:00,
2013-12-21 14:50:00,80.7,71.2,30.03,ESE,112,6.0,13.0,73,0.00,,SCT025,0.00,270.00,VWS V15.00,2013-12-21 19:50:00,
2013-12-21 14:55:00,80.2,71.2,30.03,ESE,112,5.0,11.0,74,0.00,,SCT025,0.00,104.00,VWS V15.00,2013-12-21 19:55:00,
2013-12-21 15:00:00,80.0,71.0,30.03,East,90,7.0,18.0,74,0.00,,SCT025,0.00,141.00,VWS V15.00,2013-12-21 20:00:00,
2013-12-21 15:05:00,79.9,71.3,30.03,ESE,112,4.0,10.0,75,0.00,,SCT025,0.00,151.00,VWS V15.00,2013-12-21 20:05:00,
2013-12-21 15:10:00,79.9,71.7,30.03,East,90,5.0,15.0,76,0.00,,SCT025,0.00,224.00,VWS V15.00,2013-12-21 20:10:00,
2013-12-21 15:15:00,79.9,71.7,30.03,SE,135,5.0,12.0,76,0.00,,SCT025,0.00,112.00,VWS V15.00,2013-12-21 20:15:00,
2013-12-21 15:20:00,80.0,71.4,30.03,SE,135,6.0,14.0,75,0.00,,SCT025,0.00,223.00,VWS V15.00,2013-12-21 20:20:00,
2013-12-21 15:25:00,80.2,71.9,30.03,SE,135,5.0,14.0,76,0.00,,SCT025,0.00,357.00,VWS V15.00,2013-12-21 20:25:00,
2013-12-21 15:30:00,80.2,71.6,30.03,ESE,112,7.0,15.0,75,0.00,,SCT025,0.00,347.00,VWS V15.00,2013-12-21 20:30:00,
2013-12-21 15:35:00,80.2,71.6,30.03,ESE,112,7.0,15.0,75,0.00,,SCT025,0.00,333.00,VWS V15.00,2013-12-21 20:35:00,
2013-12-21 15:40:00,80.1,71.1,30.03,ESE,112,7.0,14.0,74,0.00,,SCT025,0.00,212.00,VWS V15.00,2013-12-21 20:40:00,
2013-12-21 15:45:00,79.9,70.9,30.03,ESE,112,7.0,16.0,74,0.00,,SCT025,0.00,72.00,VWS V15.00,2013-12-21 20:45:00,
2013-12-21 15:50:00,79.7,70.7,30.03,ESE,112,6.0,14.0,74,0.00,,SCT025,0.00,64.00,VWS V15.00,2013-12-21 20:50:00,
2013-12-21 15:55:00,79.5,70.9,30.03,ESE,112,6.0,13.0,75,0.00,,SCT025,0.00,117.00,VWS V15.00,2013-12-21 20:55:00,
2013-12-21 16:00:00,79.4,70.8,30.03,ESE,112,7.0,13.0,75,0.00,,SCT025,0.00,251.00,VWS V15.00,2013-12-21 21:00:00,
2013-12-21 16:05:00,79.4,70.8,30.03,SE,135,8.0,16.0,75,0.00,,SCT025,0.00,89.00,VWS V15.00,2013-12-21 21:05:00,
2013-12-21 16:10:00,79.4,71.2,30.03,SE,135,7.0,13.0,76,0.00,,SCT025,0.00,248.00,VWS V15.00,2013-12-21 21:10:00,
2013-12-21 16:15:00,79.5,71.3,30.03,ESE,112,6.0,13.0,76,0.00,,SCT025,0.00,242.00,VWS V15.00,2013-12-21 21:15:00,
2013-12-21 16:20:00,79.4,71.2,30.03,ESE,112,7.0,14.0,76,0.00,,SCT025,0.00,185.00,VWS V15.00,2013-12-21 21:20:00,
2013-12-21 16:25:00,79.5,71.3,30.03,ESE,112,4.0,10.0,76,0.00,,SCT025,0.00,121.00,VWS V15.00,2013-12-21 21:25:00,
2013-12-21 16:30:00,79.5,71.3,30.03,ESE,112,7.0,16.0,76,0.00,,SCT025,0.00,60.00,VWS V15.00,2013-12-21 21:30:00,
2013-12-21 16:35:00,79.3,71.5,30.03,ESE,112,6.0,14.0,77,0.00,,SCT025,0.00,55.00,VWS V15.00,2013-12-21 21:35:00,
2013-12-21 16:40:00,78.9,71.5,30.03,East,90,5.0,11.0,78,0.00,,SCT025,0.00,33.00,VWS V15.00,2013-12-21 21:40:00,
2013-12-21 16:45:00,78.6,71.2,30.03,ESE,112,6.0,15.0,78,0.00,,SCT025,0.00,30.00,VWS V15.00,2013-12-21 21:45:00,
2013-12-21 16:50:00,78.4,71.3,30.03,ESE,112,5.0,11.0,79,0.00,,SCT025,0.00,28.00,VWS V15.00,2013-12-21 21:50:00,
2013-12-21 16:55:00,78.3,71.3,30.04,ESE,112,4.0,12.0,79,0.00,,SCT025,0.00,39.00,VWS V15.00,2013-12-21 21:55:00,
2013-12-21 17:00:00,78.2,71.2,30.04,ESE,112,6.0,15.0,79,0.00,,SCT025,0.00,35.00,VWS V15.00,2013-12-21 22:00:00,
2013-12-21 17:05:00,78.1,71.4,30.04,SE,135,8.0,16.0,80,0.00,,SCT025,0.00,22.00,VWS V15.00,2013-12-21 22:05:00,
2013-12-21 17:10:00,77.9,71.2,30.04,ESE,112,8.0,15.0,80,0.00,,SCT025,0.00,19.00,VWS V15.00,2013-12-21 22:10:00,
2013-12-21 17:15:00,77.8,71.1,30.04,ESE,112,6.0,12.0,80,0.00,,SCT025,0.00,15.00,VWS V15.00,2013-12-21 22:15:00,
2013-12-21 17:20:00,77.7,71.0,30.04,ESE,112,5.0,13.0,80,0.00,,SCT025,0.00,13.00,VWS V15.00,2013-12-21 22:20:00,
2013-12-21 17:25:00,77.6,70.9,30.05,ESE,112,6.0,11.0,80,0.00,,SCT025,0.00,10.00,VWS V15.00,2013-12-21 22:25:00,
2013-12-21 17:30:00,77.5,70.8,30.04,ESE,112,4.0,10.0,80,0.00,,SCT025,0.00,7.00,VWS V15.00,2013-12-21 22:30:00,
2013-12-21 17:35:00,77.4,70.8,30.04,ESE,112,4.0,11.0,80,0.00,,SCT025,0.00,3.00,VWS V15.00,2013-12-21 22:35:00,
2013-12-21 17:40:00,77.4,70.8,30.05,ESE,112,2.0,5.0,80,0.00,,SCT025,0.00,0.00,VWS V15.00,2013-12-21 22:40:00,
2013-12-21 17:45:00,77.3,71.0,30.05,ESE,112,3.0,9.0,81,0.00,,SCT025,0.00,0.00,VWS V15.00,2013-12-21 22:45:00,
2013-12-21 17:50:00,77.2,70.9,30.05,ESE,112,4.0,9.0,81,0.00,,SCT025,0.00,0.00,VWS V15.00,2013-12-21 22:50:00,
2013-12-21 17:55:00,77.1,71.2,30.05,ESE,112,4.0,7.0,82,0.00,,SCT025,0.00,0.00,VWS V15.00,2013-12-21 22:55:00,
2013-12-21 18:00:00,77.0,71.1,30.05,ESE,112,4.0,8.0,82,0.00,,SCT025,0.00,0.00,VWS V15.00,2013-12-21 23:00:00,
2013-12-21 18:05:00,76.9,71.0,30.05,ESE,112,2.0,7.0,82,0.00,,SCT025,0.00,0.00,VWS V15.00,2013-12-21 23:05:00,
2013-12-21 18:10:00,76.8,70.9,30.05,ESE,112,4.0,8.0,82,0.00,,SCT025,0.00,0.00,VWS V15.00,2013-12-21 23:10:00,
2013-12-21 18:15:00,76.8,71.2,30.05,East,90,3.0,6.0,83,0.00,,SCT025,0.00,0.00,VWS V15.00,2013-12-21 23:15:00,
2013-12-21 18:20:00,76.7,71.2,30.05,ESE,112,3.0,7.0,83,0.00,,SCT025,0.00,0.00,VWS V15.00,2013-12-21 23:20:00,
2013-12-21 18:25:00,76.7,71.2,30.05,ESE,112,2.0,9.0,83,0.00,,SCT025,0.00,0.00,VWS V15.00,2013-12-21 23:25:00,
2013-12-21 18:30:00,76.6,71.4,30.05,ESE,112,3.0,8.0,84,0.00,,SCT025,0.00,0.00,VWS V15.00,2013-12-21 23:30:00,
2013-12-21 18:35:00,76.6,71.4,30.06,ESE,112,3.0,10.0,84,0.00,,SCT025,0.00,0.00,VWS V15.00,2013-12-21 23:35:00,
2013-12-21 18:40:00,76.6,71.4,30.06,ESE,112,3.0,6.0,84,0.00,,SCT025,0.00,0.00,VWS V15.00,2013-12-21 23:40:00,
2013-12-21 18:45:00,76.6,71.4,30.06,SE,135,2.0,9.0,84,0.00,,SCT025,0.00,0.00,VWS V15.00,2013-12-21 23:45:00,
2013-12-21 18:50:00,76.6,71.4,30.06,ESE,112,3.0,7.0,84,0.00,,SCT025,0.00,0.00,VWS V15.00,2013-12-21 23:50:00,
2013-12-21 18:55:00,76.6,71.4,30.06,ESE,112,3.0,7.0,84,0.00,,SCT025,0.00,0.00,VWS V15.00,2013-12-21 23:55:00,
2013-12-21 19:00:00,76.6,71.4,30.06,ESE,112,2.0,6.0,84,0.00,,SCT025,0.00,0.00,VWS V15.00,2013-12-22 00:00:00,
2013-12-21 19:05:00,76.5,71.7,30.06,ESE,112,3.0,7.0,85,0.00,,SCT025,0.00,0.00,VWS V15.00,2013-12-22 00:05:00,
2013-12-21 19:10:00,76.5,71.7,30.06,ESE,112,3.0,7.0,85,0.00,,SCT025,0.00,0.00,VWS V15.00,2013-12-22 00:10:00,
2013-12-21 19:15:00,76.5,71.7,30.06,SE,135,3.0,9.0,85,0.00,,SCT025,0.00,0.00,VWS V15.00,2013-12-22 00:15:00,
2013-12-21 19:20:00,76.5,71.7,30.06,ESE,112,2.0,6.0,85,0.00,,SCT025,0.00,0.00,VWS V15.00,2013-12-22 00:20:00,
2013-12-21 19:25:00,76.6,71.8,30.06,ESE,112,3.0,7.0,85,0.00,,SCT025,0.00,0.00,VWS V15.00,2013-12-22 00:25:00,
2013-12-21 19:30:00,76.6,71.8,30.06,ESE,112,2.0,7.0,85,0.00,,SCT025,0.00,0.00,VWS V15.00,2013-12-22 00:30:00,
2013-12-21 19:35:00,76.6,71.8,30.06,East,90,2.0,6.0,85,0.00,,SCT025,0.00,0.00,VWS V15.00,2013-12-22 00:35:00,
2013-12-21 19:40:00,76.6,71.8,30.06,ESE,112,3.0,6.0,85,0.00,,SCT025,0.00,0.00,VWS V15.00,2013-12-22 00:40:00,
2013-12-21 19:45:00,76.6,72.1,30.06,ESE,112,2.0,8.0,86,0.00,,SCT025,0.00,0.00,VWS V15.00,2013-12-22 00:45:00,
2013-12-21 19:50:00,76.6,72.1,30.06,ESE,112,2.0,5.0,86,0.00,,SCT025,0.00,0.00,VWS V15.00,2013-12-22 00:50:00,
2013-12-21 19:55:00,76.6,72.1,30.06,ESE,112,3.0,6.0,86,0.00,,SCT025,0.00,0.00,VWS V15.00,2013-12-22 00:55:00,
2013-12-21 20:00:00,76.6,72.1,30.06,ESE,112,4.0,8.0,86,0.00,,SCT025,0.00,0.00,VWS V15.00,2013-12-22 01:00:00,
2013-12-21 20:05:00,76.6,72.1,30.06,ESE,112,5.0,11.0,86,0.00,,SCT025,0.00,0.00,VWS V15.00,2013-12-22 01:05:00,
2013-12-21 20:10:00,76.6,72.1,30.07,ESE,112,4.0,9.0,86,0.00,,SCT025,0.00,0.00,VWS V15.00,2013-12-22 01:10:00,
2013-12-21 20:15:00,76.7,72.2,30.07,East,90,3.0,6.0,86,0.00,,SCT025,0.00,0.00,VWS V15.00,2013-12-22 01:15:00,
2013-12-21 20:20:00,76.7,72.2,30.07,ESE,112,4.0,10.0,86,0.00,,SCT025,0.00,0.00,VWS V15.00,2013-12-22 01:20:00,
2013-12-21 20:25:00,76.7,72.2,30.07,ESE,112,3.0,7.0,86,0.00,,SCT025,0.00,0.00,VWS V15.00,2013-12-22 01:25:00,
2013-12-21 20:30:00,76.7,72.2,30.07,ESE,112,4.0,9.0,86,0.00,,SCT025,0.00,0.00,VWS V15.00,2013-12-22 01:30:00,
2013-12-21 20:35:00,76.7,72.2,30.07,ESE,112,3.0,9.0,86,0.00,,SCT025,0.00,0.00,VWS V15.00,2013-12-22 01:35:00,
2013-12-21 20:40:00,76.7,72.2,30.07,ESE,112,3.0,6.0,86,0.00,,SCT025,0.00,0.00,VWS V15.00,2013-12-22 01:40:00,
2013-12-21 20:45:00,76.7,72.2,30.07,SE,135,3.0,11.0,86,0.00,,SCT025,0.00,0.00,VWS V15.00,2013-12-22 01:45:00,
2013-12-21 20:50:00,76.8,72.3,30.07,East,90,4.0,9.0,86,0.00,,SCT025,0.00,0.00,VWS V15.00,2013-12-22 01:50:00,
2013-12-21 20:55:00,76.9,72.4,30.07,ESE,112,4.0,11.0,86,0.00,,SCT025,0.00,0.00,VWS V15.00,2013-12-22 01:55:00,
2013-12-21 21:00:00,76.9,72.4,30.07,East,90,2.0,7.0,86,0.00,,SCT025,0.00,0.00,VWS V15.00,2013-12-22 02:00:00,
2013-12-21 21:05:00,77.0,72.5,30.07,ESE,112,4.0,12.0,86,0.00,,SCT025,0.00,0.00,VWS V15.00,2013-12-22 02:05:00,
2013-12-21 21:10:00,77.0,72.5,30.08,ESE,112,3.0,7.0,86,0.00,,SCT025,0.00,0.00,VWS V15.00,2013-12-22 02:10:00,
2013-12-21 21:15:00,77.1,72.6,30.08,SE,135,5.0,14.0,86,0.00,,SCT025,0.00,0.00,VWS V15.00,2013-12-22 02:15:00,
2013-12-21 21:20:00,77.1,72.6,30.08,ESE,112,3.0,10.0,86,0.00,,SCT025,0.00,0.00,VWS V15.00,2013-12-22 02:20:00,
2013-12-21 21:25:00,77.1,72.6,30.08,ESE,112,5.0,12.0,86,0.00,,SCT025,0.00,0.00,VWS V15.00,2013-12-22 02:25:00,
2013-12-21 21:30:00,77.2,72.3,30.08,ESE,112,5.0,10.0,85,0.00,,SCT025,0.00,0.00,VWS V15.00,2013-12-22 02:30:00,
2013-12-21 21:35:00,77.2,72.3,30.08,ESE,112,3.0,11.0,85,0.00,,SCT025,0.00,0.00,VWS V15.00,2013-12-22 02:35:00,
2013-12-21 21:40:00,77.2,72.3,30.08,SE,135,4.0,9.0,85,0.00,,SCT025,0.00,0.00,VWS V15.00,2013-12-22 02:40:00,
2013-12-21 21:45:00,77.3,72.4,30.08,SE,135,4.0,14.0,85,0.00,,SCT025,0.00,0.00,VWS V15.00,2013-12-22 02:45:00,
2013-12-21 21:50:00,77.3,72.4,30.08,ESE,112,6.0,14.0,85,0.00,,SCT025,0.00,0.00,VWS V15.00,2013-12-22 02:50:00,
2013-12-21 21:55:00,77.3,72.4,30.08,ESE,112,6.0,12.0,85,0.00,,SCT025,0.00,0.00,VWS V15.00,2013-12-22 02:55:00,
2013-12-21 22:00:00,77.3,72.4,30.08,ESE,112,5.0,15.0,85,0.00,,SCT025,0.00,0.00,VWS V15.00,2013-12-22 03:00:00,
2013-12-21 22:05:00,77.2,72.3,30.08,ESE,112,4.0,10.0,85,0.00,,SCT025,0.00,0.00,VWS V15.00,2013-12-22 03:05:00,
2013-12-21 22:10:00,77.2,72.3,30.08,ESE,112,5.0,12.0,85,0.00,,SCT025,0.00,0.00,VWS V15.00,2013-12-22 03:10:00,
2013-12-21 22:15:00,77.2,72.3,30.08,ESE,112,5.0,13.0,85,0.00,,SCT025,0.00,0.00,VWS V15.00,2013-12-22 03:15:00,
2013-12-21 22:20:00,77.2,72.3,30.08,ESE,112,4.0,11.0,85,0.00,,SCT025,0.00,0.00,VWS V15.00,2013-12-22 03:20:00,
2013-12-21 22:25:00,77.1,72.2,30.08,ESE,112,4.0,12.0,85,0.00,,SCT025,0.00,0.00,VWS V15.00,2013-12-22 03:25:00,
2013-12-21 22:30:00,77.1,72.2,30.08,ESE,112,5.0,14.0,85,0.00,,SCT025,0.00,0.00,VWS V15.00,2013-12-22 03:30:00,
2013-12-21 22:35:00,77.1,72.2,30.08,SE,135,6.0,14.0,85,0.00,,SCT025,0.00,0.00,VWS V15.00,2013-12-22 03:35:00,
2013-12-21 22:40:00,77.2,72.3,30.08,ESE,112,6.0,16.0,85,0.00,,SCT025,0.00,0.00,VWS V15.00,2013-12-22 03:40:00,
2013-12-21 22:45:00,77.1,71.9,30.08,SE,135,4.0,9.0,84,0.00,,SCT025,0.00,0.00,VWS V15.00,2013-12-22 03:45:00,
2013-12-21 22:50:00,77.1,71.9,30.08,ESE,112,4.0,11.0,84,0.00,,SCT025,0.00,0.00,VWS V15.00,2013-12-22 03:50:00,
2013-12-21 22:55:00,77.0,71.8,30.08,SE,135,5.0,12.0,84,0.00,,SCT025,0.00,0.00,VWS V15.00,2013-12-22 03:55:00,
2013-12-21 23:00:00,77.0,71.8,30.08,SE,135,5.0,12.0,84,0.00,,SCT025,0.00,0.00,VWS V15.00,2013-12-22 04:00:00,
2013-12-21 23:05:00,77.0,71.8,30.08,ESE,112,5.0,12.0,84,0.00,,SCT025,0.00,0.00,VWS V15.00,2013-12-22 04:05:00,
2013-12-21 23:10:00,77.0,71.8,30.08,SE,135,4.0,14.0,84,0.00,,SCT025,0.00,0.00,VWS V15.00,2013-12-22 04:10:00,
2013-12-21 23:15:00,77.0,71.8,30.08,SE,135,5.0,14.0,84,0.00,,SCT025,0.00,0.00,VWS V15.00,2013-12-22 04:15:00,
2013-12-21 23:20:00,77.0,71.8,30.08,SE,135,5.0,15.0,84,0.00,,SCT025,0.00,0.00,VWS V15.00,2013-12-22 04:20:00,
2013-12-21 23:25:00,77.0,71.8,30.08,SE,135,6.0,16.0,84,0.00,,SCT025,0.00,0.00,VWS V15.00,2013-12-22 04:25:00,
2013-12-21 23:30:00,77.1,71.5,30.08,SE,135,6.0,14.0,83,0.00,,SCT025,0.00,0.00,VWS V15.00,2013-12-22 04:30:00,
2013-12-21 23:35:00,77.1,71.5,30.08,SE,135,6.0,13.0,83,0.00,,SCT025,0.00,0.00,VWS V15.00,2013-12-22 04:35:00,
2013-12-21 23:40:00,77.0,71.4,30.08,SE,135,5.0,12.0,83,0.00,,SCT025,0.00,0.00,VWS V15.00,2013-12-22 04:40:00,
2013-12-21 23:45:00,77.0,71.4,30.08,SE,135,5.0,18.0,83,0.00,,SCT025,0.00,0.00,VWS V15.00,2013-12-22 04:45:00,
2013-12-21 23:50:00,77.1,71.5,30.08,SE,135,7.0,17.0,83,0.00,,SCT025,0.00,0.00,VWS V15.00,2013-12-22 04:50:00,
2013-12-21 23:55:00,77.2,71.6,30.07,SE,135,6.0,11.0,83,0.00,,SCT025,0.00,0.00,VWS V15.00,2013-12-22 04:55:00,